Location: Theodore Roosevelt National Park
(46.9990°N, 103.4631°W)
Time: 21:01:54
(UTC-07:00)

Iridium 37 - Visible Passes

Search period start: 26 February 2015 00:00
Search period end: 08 March 2015 00:00
Orbit: 776 x 779 km, 86.4° (Epoch: 25 February)

Date Brightness Start Highest point End Pass type
(mag) Time Alt. Az. Time Alt. Az. Time Alt. Az.
27 Feb 8.3 21:31:42 10° N 21:31:49 11° N 21:31:49 11° N visible
28 Feb 8.1 20:58:20 10° N 20:58:37 11° N 20:58:37 11° N visible
01 Mar 8.0 20:25:15 10° NNE 20:25:25 11° NNE 20:25:25 11° NNE visible
01 Mar 8.4 22:05:31 10° NNW 22:05:54 12° NNW 22:05:54 12° NNW visible
02 Mar 8.0 21:31:48 10° N 21:32:42 15° N 21:32:42 15° N visible
03 Mar 7.7 20:58:18 10° N 20:59:33 17° N 20:59:33 17° N visible
04 Mar 7.5 20:25:01 10° NNE 20:26:22 17° NNE 20:26:22 17° NNE visible
04 Mar 8.2 22:05:49 10° NNW 22:06:52 15° NNW 22:06:52 15° NNW visible
05 Mar 7.5 19:52:06 10° NNE 19:53:15 14° NE 19:53:15 14° NE visible
05 Mar 7.7 21:31:57 10° N 21:33:44 21° NNW 21:33:44 21° NNW visible
06 Mar 7.7 19:20:04 10° NE 19:20:08 10° NE 19:20:08 10° NE visible
06 Mar 7.2 20:58:19 10° N 21:00:38 27° N 21:00:38 27° N visible
06 Mar 8.5 22:40:56 10° NW 22:41:07 10° NW 22:41:07 10° NW visible
07 Mar 6.9 20:24:55 10° N 20:27:32 28° NNE 20:27:32 28° NNE visible
07 Mar 8.0 22:06:16 10° NNW 22:08:01 18° NW 22:08:01 18° NW visible
